#timestamp,LO_Frequency,Hit,StdDev 
1512864015.9,286046999.9,N
1512864035.7,286046998.5,N
1512864055.6,286046998.2,N
1512864075.4,286046998.4,N
1512864095.3,286046997.3,N
1512864115.1,286046997.9,N
1512864116.0,286046997.9,N
1512864135.8,286046999.2,N
1512864155.7,286046998.7,N
1512864175.5,286046998.2,N
1512864195.4,286046997.8,N
1512864215.2,286046999.6,N
1512864235.0,286046998.3,N
1512864235.9,286046998.3,N
1512864255.8,286047000.2,N
1512864275.6,286047000.3,N
1512864295.4,286047000.4,N
1512864315.3,286046998.9,N
1512864335.1,286046996.5,N
1512864355.9,286047000.0,N
1512864375.7,286047002.2,N
1512864395.5,286047001.7,N
1512864415.4,286046999.9,N
1512864435.2,286047000.7,N
1512864455.1,286047003.8,N
1512864456.0,286047003.8,N
1512864475.8,286047004.3,N
1512864495.6,286047003.9,N
1512864515.5,286047001.7,N
1512864535.3,286047004.0,N
1512864555.2,286047002.1,N
1512864575.9,286047001.2,N
1512864595.7,286046999.3,N
1512864615.6,286047000.9,N
1512864635.4,286047000.1,N
1512864655.2,286047000.0,N
1512864675.1,286046997.8,N
1512864676.0,286046997.8,N
1512864695.8,286046994.9,N
1512864715.7,286046995.4,N
1512864735.5,286046999.6,N
1512864755.3,286047001.1,N
1512864775.2,286046999.9,N
1512864795.0,286047002.8,N
1512864795.9,286047002.8,N
1512864815.8,286046999.8,N
1512864835.6,286047002.8,N
1512864855.4,286047000.2,N
1512864875.3,286046999.9,N
1512864895.1,286047001.9,N
1512864915.8,286047006.0,N
1512864935.7,286047004.1,N
1512864955.5,286047004.0,N
1512864975.4,286047002.7,N
1512864995.2,286046998.1,N
1512865015.0,286046998.2,N
1512865015.9,286046998.2,N
1512865035.8,286047000.7,N
1512865055.6,286046998.2,N
1512865075.5,286046998.8,N
1512865095.3,286047001.0,N
1512865115.1,286047002.6,N
1512865135.9,286047002.3,N
1512865155.7,286046998.7,N
1512865175.5,286046997.6,N
1512865195.4,286046999.1,N
1512865215.2,286047000.2,N
1512865235.1,286047004.4,N
1512865236.0,286047004.4,N
1512865255.8,286047003.9,N
1512865275.6,286047004.4,N
1512865295.5,286046999.8,N
1512865315.3,286047004.1,N
1512865335.2,286047002.5,N
1512865355.9,286047002.0,N
1512865375.7,286047002.8,N
1512865395.6,286046999.5,N
1512865415.4,286046995.8,N
1512865435.2,286046997.3,N
1512865455.1,286046999.6,N
1512865456.0,286046999.6,N
1512865475.8,286046998.4,N
1512865495.7,286047000.9,N
1512865515.5,286047000.3,N
1512865535.3,286047002.8,N
1512865555.2,286047003.8,N
1512865575.0,286047005.6,N
1512865575.9,286047005.6,N
1512865595.8,286047004.6,N
1512865615.6,286047006.5,N
1512865635.4,286047009.1,Y
1512865655.3,286047003.5,P
1512865675.1,286046999.8,N
1512865695.8,286047000.6,N
1512865715.7,286046999.0,N
1512865735.5,286046995.5,N
1512865755.4,286046993.4,N
1512865775.2,286046994.7,N
1512865795.0,286046994.6,N
1512865795.9,286046994.6,N
1512865815.8,286046993.7,N
1512865835.6,286046995.4,N
1512865855.5,286046995.4,N
1512865875.3,286046991.9,N
1512865895.1,286046992.4,N
1512865915.9,286046995.9,N
1512865935.7,286046997.2,N
1512865955.5,286046999.6,N
1512865975.4,286046996.3,N
1512865995.2,286046995.7,N
1512866015.1,286046993.7,N
1512866016.0,286046993.7,N
1512866035.8,286046996.7,N
1512866055.6,286046998.9,N
1512866075.5,286047000.0,N
1512866095.3,286047002.6,N
1512866115.2,286047001.5,N
1512866135.9,286046999.8,N
1512866155.7,286046998.3,N
1512866175.6,286047000.8,N
1512866195.4,286046998.3,N
1512866215.2,286047000.8,N
1512866235.1,286047001.0,N
1512866236.0,286047001.0,N
1512866255.8,286047002.6,N
1512866275.7,286047002.0,N
1512866295.5,286047001.7,N
1512866315.3,286047002.3,N
1512866335.2,286046998.2,N
1512866355.0,286047001.0,N
1512866355.9,286047001.0,N
1512866375.8,286046998.6,N
1512866395.6,286047000.2,N
1512866415.4,286047001.9,N
1512866435.3,286047002.1,N
1512866455.1,286047001.3,N
1512866475.8,286047002.0,N
1512866495.7,286046998.6,N
1512866515.5,286046996.5,N
1512866535.4,286046999.4,N
1512866555.2,286046998.7,N
1512866575.0,286046999.4,N
1512866575.9,286046999.4,N
1512866595.8,286046994.9,Y
1512866615.6,286046997.8,P
1512866635.5,286046998.7,N
1512866655.3,286046998.4,N
1512866675.1,286046997.3,N
1512866695.9,286046997.8,N
1512866715.7,286046996.9,Y
1512866735.6,286046999.1,P
1512866755.4,286046997.6,P
1512866775.2,286046999.2,N
1512866795.1,286047000.9,N
1512866796.0,286047000.9,N
1512866815.8,286046997.0,N
1512866835.7,286046999.5,N
1512866855.5,286046999.5,N
1512866875.3,286046997.5,N
1512866895.2,286046996.7,N
1512866915.0,286046999.1,N
1512866915.9,286046999.1,N
1512866935.7,286047000.6,N
1512866955.6,286047002.0,N
1512866975.4,286047002.0,N
1512866995.3,286047002.2,N
1512867015.1,286046998.5,N
1512867016.0,286046998.5,N
1512867035.8,286047000.6,N
1512867055.7,286046998.6,N
1512867075.5,286046997.7,N
1512867095.4,286046995.1,Y
1512867115.2,286046998.1,P
1512867135.0,286046998.5,N
1512867135.9,286046998.5,N
1512867155.8,286047000.5,N
1512867175.6,286046998.7,N
1512867195.5,286046998.7,N
1512867215.3,286046999.0,N
1512867235.1,286046998.2,N
1512867255.9,286046999.1,N
1512867275.7,286047000.7,N
1512867295.5,286047002.0,N
1512867315.4,286046999.8,N
1512867335.2,286047004.3,Y
1512867355.1,286047005.9,P
1512867356.0,286047005.9,N
1512867375.8,286047003.2,N
1512867395.6,286047004.1,N
1512867415.5,286047003.3,N
1512867435.3,286047003.6,N
1512867455.2,286047003.8,N
1512867475.9,286047003.2,N
1512867495.7,286047001.4,N
1512867515.6,286047002.5,N
1512867535.4,286047002.5,N
1512867555.3,286047002.9,N
1512867575.1,286047002.9,N
1512867576.0,286047002.9,N
1512867595.8,286047003.8,N
